Location: Aalen
(48.8330°N, 10.1000°E)
Time: 06:35:50
(UTC+02:00)

Vanguard 3 - All Passes

Search period start: 31 July 2021 00:00
Search period end: 10 August 2021 00:00
Orbit: 508 x 3261 km, 33.4° (Epoch: 30 July)

Date Brightness Start Highest point End Pass type
(mag) Time Alt. Az. Time Alt. Az. Time Alt. Az.
31 Jul - 00:50:56 10° W 01:06:47 32° SSW 01:19:58 10° SSE visible
31 Jul - 03:14:26 10° WSW 03:18:11 11° SW 03:21:42 10° SW visible
31 Jul - 17:01:25 10° S 17:10:01 19° SE 17:20:35 10° E daylight
31 Jul - 19:08:22 10° SW 19:22:06 39° SSE 19:39:18 10° E daylight
31 Jul - 21:19:48 10° WSW 21:36:27 49° S 21:54:22 10° ESE visible
31 Jul - 23:33:56 10° W 23:51:07 40° SSW 00:06:35 10° SE visible
01 Aug - 01:51:44 10° W 02:03:53 21° SW 02:14:15 10° S visible
01 Aug - 17:55:28 10° SSW 18:06:49 30° SE 18:21:46 10° E daylight
01 Aug - 20:05:09 10° SW 20:20:08 46° SSE 20:38:18 10° ESE daylight
01 Aug - 22:17:54 10° WSW 22:34:56 46° SSW 22:52:07 10° SE visible
02 Aug - 00:33:24 10° W 00:48:51 30° SW 01:02:26 10° SSE visible
02 Aug - 16:44:00 10° S 16:52:20 20° SE 17:02:59 10° E daylight
02 Aug - 18:51:19 10° SW 19:04:17 40° SSE 19:21:28 10° E daylight
02 Aug - 21:02:39 10° WSW 21:18:32 48° S 21:36:44 10° ESE visible
02 Aug - 23:16:33 10° W 23:33:09 39° SSW 23:49:03 10° SE visible
03 Aug - 01:34:31 10° W 01:45:58 19° SW 01:56:13 10° S visible
03 Aug - 17:38:26 10° SSW 17:49:08 31° SSE 18:03:52 10° E daylight
03 Aug - 19:48:10 10° WSW 20:02:19 46° S 20:20:30 10° ESE daylight
03 Aug - 22:00:41 10° WSW 22:16:59 45° SSW 22:34:29 10° SE visible
04 Aug - 00:16:03 10° W 00:30:52 28° SW 00:44:39 10° SSE visible
04 Aug - 16:26:50 10° S 16:34:45 21° SE 16:45:14 10° E daylight
04 Aug - 18:34:27 10° SW 18:46:35 41° SSE 19:03:31 10° E daylight
04 Aug - 20:45:39 10° WSW 21:00:40 47° S 21:18:56 10° ESE daylight
04 Aug - 22:59:19 10° W 23:15:10 36° SSW 23:31:17 10° SSE visible
05 Aug - 01:17:38 10° W 01:28:01 17° SW 01:37:44 10° SSW visible
05 Aug - 15:20:05 10° SE 15:21:06 10° SE 15:22:08 10° ESE daylight
05 Aug - 17:21:35 10° SSW 17:31:33 32° SSE 17:45:52 10° E daylight
05 Aug - 19:31:20 10° WSW 19:44:34 46° S 20:02:32 10° ESE daylight
05 Aug - 21:43:39 10° WSW 21:59:04 43° SSW 22:16:38 10° SE visible
05 Aug - 23:58:56 10° W 00:12:53 26° SW 00:26:34 10° S visible
06 Aug - 16:09:54 10° S 16:17:19 21° SE 16:27:25 10° E daylight
06 Aug - 18:17:44 10° SW 18:29:00 41° SSE 18:45:27 10° ESE daylight
06 Aug - 20:28:47 10° WSW 20:42:53 46° S 21:00:59 10° ESE daylight
06 Aug - 22:42:16 10° W 22:57:12 34° SSW 23:13:16 10° SSE visible
07 Aug - 01:01:14 10° WSW 01:10:04 15° SW 01:18:40 10° SSW visible
07 Aug - 15:01:50 10° SE 15:03:45 11° SE 15:05:47 10° ESE daylight
07 Aug - 17:04:54 10° SSW 17:14:08 32° SSE 17:27:50 10° E daylight
07 Aug - 19:14:38 10° WSW 19:26:57 45° S 19:44:28 10° ESE daylight
07 Aug - 21:26:46 10° WSW 21:41:13 40° SSW 21:58:36 10° SE visible
07 Aug - 23:42:04 10° W 23:54:56 23° SW 00:08:09 10° S visible
08 Aug - 15:53:07 10° S 16:00:00 21° SE 16:09:35 10° E daylight
08 Aug - 18:01:08 10° SW 18:11:33 40° SSE 18:27:20 10° ESE daylight
08 Aug - 20:12:04 10° WSW 20:25:11 44° S 20:42:51 10° SE daylight
08 Aug - 22:25:25 10° W 22:39:19 31° SSW 22:54:59 10° SSE visible
09 Aug - 00:45:39 10° WSW 00:52:09 13° SW 00:58:41 10° SSW visible
09 Aug - 14:44:27 10° SE 14:46:32 11° SE 14:48:47 10° ESE daylight
09 Aug - 16:48:21 10° SSW 16:56:50 32° SSE 17:09:46 10° E daylight
09 Aug - 18:58:04 10° WSW 19:09:27 43° S 19:26:17 10° ESE daylight
09 Aug - 21:10:02 10° WSW 21:23:26 37° SSW 21:40:21 10° SE visible
09 Aug - 23:25:30 10° WSW 23:37:02 21° SW 23:49:20 10° S visible
